TimeMDT,TemperatureF,Dew PointF,Humidity,Sea Level PressureIn,VisibilityMPH,Wind Direction,Wind SpeedMPH,Gust SpeedMPH,PrecipitationIn,Events,Conditions,WindDirDegrees,DateUTC
12:55 AM,37.0,23.0,57,29.87,10.0,South,11.5,-,N/A,,Clear,170,2011-11-04 06:55:00
1:55 AM,37.9,24.1,57,29.86,10.0,SSE,9.2,-,N/A,,Clear,160,2011-11-04 07:55:00
2:55 AM,37.0,25.0,62,29.85,10.0,South,11.5,-,N/A,,Clear,170,2011-11-04 08:55:00
3:55 AM,37.9,25.0,60,29.83,10.0,South,10.4,-,N/A,,Clear,190,2011-11-04 09:55:00
4:55 AM,39.0,24.1,55,29.83,10.0,South,10.4,-,N/A,,Clear,180,2011-11-04 10:55:00
5:55 AM,37.0,24.1,59,29.83,10.0,South,10.4,-,N/A,,Clear,190,2011-11-04 11:55:00
6:55 AM,37.0,24.1,59,29.83,10.0,South,13.8,-,N/A,,Clear,190,2011-11-04 12:55:00
7:55 AM,36.0,24.1,62,29.84,10.0,South,11.5,-,N/A,,Clear,180,2011-11-04 13:55:00
8:55 AM,39.9,25.0,55,29.83,10.0,South,16.1,-,N/A,,Clear,190,2011-11-04 14:55:00
9:55 AM,43.0,25.0,49,29.81,10.0,South,16.1,-,N/A,,Clear,190,2011-11-04 15:55:00
10:55 AM,46.9,26.1,44,29.79,10.0,SSW,16.1,-,N/A,,Clear,210,2011-11-04 16:55:00
11:55 AM,51.1,26.1,38,29.76,10.0,South,13.8,23.0,N/A,,Clear,180,2011-11-04 17:55:00
12:55 PM,57.0,26.1,30,29.72,10.0,South,13.8,-,N/A,,Clear,170,2011-11-04 18:55:00
1:55 PM,60.1,26.1,27,29.69,10.0,South,15.0,-,N/A,,Clear,170,2011-11-04 19:55:00
2:55 PM,61.0,27.0,27,29.67,10.0,South,15.0,-,N/A,,Clear,170,2011-11-04 20:55:00
3:55 PM,60.1,28.0,30,29.66,10.0,South,15.0,-,N/A,,Clear,170,2011-11-04 21:55:00
4:55 PM,57.0,28.9,34,29.67,10.0,South,16.1,-,N/A,,Clear,170,2011-11-04 22:55:00
5:55 PM,52.0,28.9,41,29.66,10.0,SSE,11.5,-,N/A,,Clear,150,2011-11-04 23:55:00
6:55 PM,48.9,28.9,46,29.66,10.0,South,6.9,-,N/A,,Clear,170,2011-11-05 00:55:00
7:55 PM,48.0,30.0,50,29.68,10.0,SSW,11.5,-,N/A,,Clear,200,2011-11-05 01:55:00
8:55 PM,46.9,30.0,52,29.66,10.0,SSE,10.4,-,N/A,,Clear,160,2011-11-05 02:55:00
9:55 PM,45.0,30.0,56,29.66,10.0,South,9.2,-,N/A,,Clear,190,2011-11-05 03:55:00
10:55 PM,45.0,28.9,53,29.64,10.0,SE,6.9,-,N/A,,Clear,140,2011-11-05 04:55:00
11:55 PM,41.0,28.9,62,29.61,10.0,SE,4.6,-,N/A,,Clear,140,2011-11-05 05:55:00